Regional Weather Roundup
Issued by NWS Raleigh/Durham, NC

Home | Current Version | Previous Version | Text Only | Print | Product List | Glossary On
Versions: 1 2 3 4 5 6 7 8 9 10 11 12 13 14 15 16 17 18 19 20 21 22 23 24 25 26 27 28 29 30 31 32 33 34 35 36 37 38 39 40 41 42 43 44 45 46 47 48 49 50
000
ASUS42 KRAH 270410
RWRRAH
NORTH CAROLINA WEATHER ROUNDUP
NATIONAL WEATHER SERVICE RALEIGH NC
1200 AM EDT MON APR 27 2015

NOTE: "FAIR" INDICATES FEW OR NO CLOUDS BELOW 12,000 FEET WITH NO
SIGNIFICANT WEATHER AND/OR OBSTRUCTIONS TO VISIBILITY.

NCZ001-053-055-056-065-067-270500-
WESTERN NORTH CAROLINA

CITY           SKY/WX    TMP DP  RH WIND       PRES   REMARKS
ASHEVILLE      CLOUDY    51  43  74 N13       29.83R
JEFFERSON      CLOUDY    46  32  56 NW5       29.81S
MORGANTON      CLOUDY    51  50  97 CALM      29.85S
HICKORY        MOCLDY    51  47  86 CALM      29.80S
RUTHERFORDTON  CLOUDY    51  50  98 CALM      29.82S
MOUNT AIRY     CLOUDY    51  46  86 CALM      29.80S
BOONE          CLOUDY    46  35  64 W6        29.82F
$$

NCZ021-022-025-041-071-084-088-270500-
CENTRAL NORTH CAROLINA

CITY           SKY/WX    TMP DP  RH WIND       PRES   REMARKS
CHARLOTTE      CLOUDY    52  46  80 CALM      29.80F
GREENSBORO     MOCLDY    47  44  90 SW3       29.78R
WINSTON-SALEM  CLOUDY    47  45  93 CALM      29.80R
RALEIGH-DURHAM MOCLDY    46  44  93 CALM      29.78S
FORT BRAGG     MOCLDY    51  48  92 NW3       29.77F
FAYETTEVILLE   LGT RAIN  52  49  89 N6        29.77F
BURLINGTON     CLOUDY    46  44  93 SW5       29.78S
LAURINBURG     CLOUDY    51  49  92 NW5       29.81R
$$

NCZ011-015-027-028-043-044-047-080-103-270500-
NORTHEASTERN NORTH CAROLINA

CITY           SKY/WX    TMP DP  RH WIND       PRES   REMARKS
ROCKY MT-WILSO MOCLDY    49  46  90 CALM      29.77R
GREENVILLE     PTCLDY    48  48 100 CALM      29.80R FOG
WASHINGTON     MOCLDY    47  45  95 CALM      29.76F
ELIZABETH CITY PTCLDY    50  40  68 NE7       29.73F
MANTEO         PTCLDY    52  34  50 NE10      29.72F
CAPE HATTERAS  MOCLDY    51  43  74 NE10G23   29.72S
$$

NCZ078-087-090-091-093-098-101-270500-
SOUTHEASTERN NORTH CAROLINA

CITY           SKY/WX    TMP DP  RH WIND       PRES   REMARKS
LUMBERTON      CLOUDY    52  50  93 CALM      29.78S
GOLDSBORO      CLOUDY    51  48  91 NW1       29.75F
KINSTON        MOCLDY    48  47  97 CALM      29.78S
KENANSVILLE    MOCLDY    49  48  96 SW3       29.79S
NEW BERN       CLOUDY    51  47  86 N3        29.77F
CHERRY POINT   MOCLDY    53  47  79 N7        29.76F
BEAUFORT       CLOUDY    52  48  86 N5        29.75S
JACKSONVILLE   CLOUDY    52  48  86 N7        29.75S
WILMINGTON     LGT RAIN  53  48  83 N5        29.78R
$$




USA.gov is the U.S. government's official web portal to all federal, state and local government web resources and services.